Wind_Speed
19 19 19 19 21 19 13 11 11 9 8 7 6 4 4 2 2 2 3 4 3 2 1 1 3 5 6 8 9 10 10 10 10 10 10 11 11 10 10 10 11 11 11 11 10 10 9 8 8
19 17 18 21 22 15 12 11 11 10 9 7 7 6 5 3 2 2 2 3 3 2 1 1 3 4 6 7 7 9 10 10 11 11 10 11 11 10 10 10 11 12 11 10 9 9 8 7 8
18 17 21 22 18 13 12 12 11 11 10 9 8 6 5 4 3 3 3 3 2 2 2 1 3 4 5 6 7 9 9 10 11 10 11 11 11 10 9 10 10 11 10 10 9 9 7 7 7
17 21 23 20 13 12 12 12 12 12 10 9 8 7 6 6 5 5 6 5 4 3 2 2 3 4 5 5 7 9 9 10 10 10 11 12 12 10 9 10 10 10 10 9 9 8 8 7 7
19 23 20 15 12 11 12 13 12 12 11 10 9 9 8 7 7 7 7 7 5 4 4 4 4 4 4 7 8 9 9 10 10 11 11 12 11 11 10 10 10 10 9 9 8 9 8 7 6
20 20 16 13 11 11 12 13 12 11 11 11 10 9 9 8 8 7 8 8 7 7 6 5 5 4 5 7 8 8 9 9 10 11 12 12 11 10 10 10 10 9 9 9 9 9 8 7 6
17 16 13 11 11 11 10 10 11 12 12 11 11 10 10 9 9 9 9 9 8 7 6 5 4 5 5 5 6 7 9 9 10 11 11 11 10 10 10 10 9 9 9 8 8 7 7 6 6
15 14 12 9 9 10 11 10 11 12 12 12 12 12 12 11 10 10 9 9 9 9 7 5 4 5 6 5 4 7 9 9 10 11 11 10 10 10 9 9 9 8 8 8 7 6 5 5 5
11 12 10 7 7 9 10 10 11 12 12 13 13 13 12 12 11 11 11 10 10 11 9 6 4 5 6 6 5 7 8 10 10 10 10 9 9 9 8 8 7 7 7 6 6 5 4 5 6
8 9 9 7 7 8 9 10 11 12 12 13 13 14 13 12 12 12 12 12 11 11 10 8 6 7 6 6 5 7 7 8 8 9 9 9 9 8 8 7 6 6 6 5 4 5 4 4 5
6 6 5 5 6 7 8 9 11 12 12 13 13 13 13 13 13 12 12 12 12 11 11 10 8 8 7 6 5 6 5 6 7 8 8 8 8 7 7 7 6 6 5 5 4 5 5 5 5
4 3 3 4 5 7 8 8 9 10 12 13 12 12 13 12 12 13 13 12 12 12 11 10 9 8 6 6 5 5 5 6 6 7 7 7 8 7 7 7 6 6 5 4 4 3 4 4 4
1 2 4 5 6 6 7 7 8 10 11 12 12 13 13 13 13 13 13 12 11 11 10 9 9 7 6 5 5 5 4 5 5 6 6 6 6 6 7 6 6 5 4 4 3 2 3 3 3
2 1 2 4 4 5 7 6 8 9 11 11 12 12 13 13 13 13 13 12 11 11 11 10 9 8 6 5 4 4 3 4 5 5 5 5 5 5 6 5 5 5 4 3 3 2 3 4 3
3 2 2 4 5 6 7 8 8 9 9 10 11 12 13 13 13 12 12 12 11 11 10 10 9 9 6 4 4 3 2 3 4 5 4 5 4 4 4 4 4 4 4 3 3 3 3 4 3
4 4 4 5 6 8 8 9 10 9 8 8 10 11 11 12 13 12 11 11 11 11 10 9 8 8 7 5 4 3 3 2 3 4 4 4 4 4 3 4 4 4 4 3 3 3 4 4 4
6 7 6 6 6 8 9 9 10 8 8 9 8 9 10 11 12 12 11 10 10 10 9 9 7 7 7 6 5 4 2 2 3 3 3 3 4 4 3 3 4 4 4 4 3 3 3 4 4
7 7 6 7 8 8 9 9 13 12 11 9 8 9 9 9 10 11 10 10 9 9 9 8 7 7 7 6 5 4 3 2 3 2 2 3 3 4 3 3 3 4 4 4 3 2 3 4 4
11 10 9 9 10 9 9 10 13 14 13 10 10 9 10 10 9 9 9 9 9 9 8 8 7 6 6 5 5 3 3 2 2 1 1 2 3 3 3 4 4 3 3 3 3 3 4 5 5
15 12 10 12 12 11 11 12 12 14 14 12 11 11 11 11 9 9 10 10 9 8 8 7 7 6 6 5 4 4 3 2 1 1 1 2 2 3 4 4 4 3 3 3 4 4 4 6 6
16 14 13 14 14 12 12 14 14 14 14 14 13 13 12 12 10 9 9 9 9 8 7 7 7 7 7 6 5 4 4 4 3 3 3 3 2 2 3 4 5 5 4 4 5 5 6 7 7
15 15 15 15 15 14 14 17 17 17 15 14 14 13 13 13 11 11 10 10 9 8 8 8 8 8 7 7 6 6 6 5 4 4 5 5 4 5 5 5 6 6 6 6 6 7 8 8 9
17 17 18 17 17 17 17 19 19 18 15 13 13 13 14 13 13 12 11 11 10 10 10 9 9 9 8 8 7 7 7 7 6 6 6 6 6 6 7 7 7 7 7 7 8 8 8 9 10
17 16 16 17 18 20 18 20 22 20 18 17 15 13 15 15 16 15 14 13 12 12 12 12 11 11 10 10 9 9 8 8 8 8 8 8 8 8 8 8 8 9 9 9 9 10 10 11 11
16 15 16 17 19 19 16 19 22 21 21 19 17 15 16 17 18 18 16 15 14 14 14 13 12 12 11 11 10 10 10 10 10 10 10 10 10 10 10 10 10 10 11 11 12 12 12 13 13
17 17 18 18 18 17 15 18 18 19 21 21 18 17 19 18 19 19 18 16 15 15 14 14 14 13 12 12 12 11 11 11 11 11 12 12 12 12 12 12 12 12 13 14 14 14 14 14 15
19 20 19 19 20 20 19 18 19 18 18 19 18 18 19 19 19 21 20 18 17 16 16 15 15 15 14 14 13 13 13 12 12 12 12 13 13 13 13 14 14 14 15 16 16 16 16 16 17
19 18 19 20 21 22 20 19 20 18 17 18 19 20 21 19 20 21 21 19 19 18 17 17 17 16 16 15 15 15 15 15 15 14 14 14 15 16 16 16 17 17 17 17 18 17 18 19 19
18 18 20 21 21 20 20 22 22 22 22 22 22 22 22 22 21 22 22 21 20 20 19 18 18 18 18 18 18 18 17 17 17 17 17 17 17 18 19 19 19 19 19 19 20 19 19 20 21
21 20 20 22 23 22 22 24 23 20 22 22 22 24 24 24 23 22 23 24 22 22 21 21 20 20 20 20 20 20 19 19 19 19 19 19 19 20 20 20 20 21 21 22 22 21 22 23 24
Wind_Direction
74 73 70 63 56 46 37 34 28 30 31 29 28 26 23 7 357 359 340 346 351 345 340 173 172 172 180 184 181 180 174 173 171 169 169 165 161 157 163 167 165 164 160 158 153 145 143 134 133
75 74 69 58 54 39 26 28 28 30 32 31 28 27 23 21 12 7 355 360 9 4 35 141 169 172 170 174 176 175 173 172 172 169 167 168 166 161 163 165 165 163 163 159 157 149 141 134 135
78 73 64 56 47 26 21 22 26 30 31 31 30 29 26 26 29 26 8 13 31 15 17 100 151 172 178 177 182 180 180 179 176 176 170 166 162 159 159 162 167 164 162 160 154 147 140 135 138
77 69 59 54 41 28 23 24 24 28 28 31 32 29 31 30 28 24 29 30 35 42 50 80 125 156 165 168 175 173 179 180 175 174 169 162 160 158 157 160 162 159 157 154 151 147 138 135 138
73 65 55 47 38 24 21 25 29 24 28 29 32 31 32 31 25 25 35 43 50 54 59 82 105 120 150 162 165 169 173 170 170 167 166 163 163 160 159 160 161 156 154 155 155 148 139 139 140
68 61 49 44 39 30 21 18 22 22 27 32 31 32 31 32 29 30 37 39 41 38 56 79 96 109 142 158 164 171 170 166 165 165 164 166 165 163 160 158 159 155 153 157 157 152 143 141 145
66 64 53 35 33 32 21 19 21 23 29 32 33 32 34 34 33 34 37 36 36 39 55 70 98 101 121 154 169 171 168 169 164 167 166 164 164 159 158 159 163 160 165 168 164 160 156 153 156
67 67 64 40 28 29 23 19 25 26 30 32 34 31 31 33 34 36 37 37 38 37 46 67 89 103 111 128 144 161 168 170 167 168 168 165 164 160 160 162 162 162 169 174 174 169 168 157 161
68 66 61 42 30 29 26 25 28 29 32 32 30 30 30 33 35 37 38 40 43 41 44 56 77 89 99 113 130 142 153 163 167 169 171 168 167 163 163 162 161 160 172 178 177 171 176 170 171
62 53 49 32 34 37 35 28 27 29 27 29 29 28 31 34 38 40 39 39 41 44 42 51 72 79 89 104 124 137 146 156 164 169 173 174 170 166 166 166 169 173 176 179 180 181 182 180 175
76 58 56 37 41 40 35 29 24 27 26 24 27 27 30 33 35 38 38 37 40 42 43 45 59 69 78 90 105 120 137 154 162 166 169 173 175 174 173 177 180 178 182 184 176 172 178 182 180
75 60 42 31 30 34 30 26 25 25 22 20 24 26 29 30 32 33 35 34 38 40 43 46 49 55 66 81 90 117 133 141 152 164 170 172 178 179 179 185 186 182 182 186 188 180 190 190 182
92 19 9 6 8 15 16 16 21 19 19 19 21 23 26 29 29 30 32 34 35 38 43 41 41 46 55 69 89 110 139 149 148 154 164 170 178 185 186 189 190 192 196 193 182 176 186 192 188
182 255 347 352 348 1 354 1 12 15 14 15 20 24 24 26 27 29 31 34 35 38 40 40 38 46 55 69 82 93 114 150 159 160 166 166 165 171 177 187 186 186 195 199 194 206 210 216 206
201 247 289 308 329 330 332 336 350 5 7 9 16 20 20 21 24 26 28 31 34 36 36 37 38 39 49 63 73 72 95 126 166 171 173 175 171 172 182 186 189 196 209 221 219 220 219 218 210
220 249 265 279 308 314 325 324 330 347 357 3 8 13 15 14 18 20 22 25 28 32 33 34 36 39 43 48 53 62 76 106 151 171 174 177 177 184 190 195 204 208 217 228 227 222 221 221 225
243 259 263 278 279 289 305 314 316 329 340 344 358 2 7 9 11 15 16 17 20 24 27 28 31 35 39 43 40 48 69 105 137 156 174 187 194 199 206 208 222 232 227 226 227 226 227 233 234
259 267 260 271 279 280 291 303 305 312 319 335 345 348 354 357 4 7 8 9 10 13 16 18 20 27 32 33 35 41 54 84 123 139 161 192 202 206 216 231 243 240 229 224 226 229 237 244 247
243 247 251 249 263 271 278 291 297 303 311 318 323 329 338 343 353 354 358 1 2 2 5 9 12 13 14 18 26 31 42 63 93 104 176 208 210 221 233 234 238 239 230 231 230 243 259 266 273
238 242 252 257 259 263 265 272 286 290 297 301 307 315 320 326 336 342 347 347 348 350 355 360 1 359 357 346 350 6 8 354 315 299 293 262 253 250 246 244 247 247 251 256 253 261 272 276 278
243 243 247 260 266 264 264 268 273 276 283 287 294 304 309 314 321 330 335 335 335 340 346 348 345 342 343 336 327 324 324 323 306 289 299 288 271 272 276 266 257 262 270 270 265 267 277 280 275
247 247 249 255 262 266 266 267 272 277 280 286 292 297 300 303 307 312 316 321 325 326 326 328 334 334 331 331 317 304 300 297 296 300 307 306 300 287 286 274 266 268 270 272 276 276 277 277 271
240 246 248 250 254 258 259 262 269 272 267 270 275 283 288 293 300 304 305 307 312 313 314 315 316 319 317 312 309 303 293 288 289 293 294 294 296 293 287 285 276 271 272 273 275 278 281 282 278
243 247 251 252 254 256 256 260 263 263 266 264 262 270 282 287 291 293 294 296 300 303 307 310 308 308 306 307 304 301 299 291 289 288 286 286 284 287 284 280 277 270 271 273 275 278 278 279 280
243 244 251 257 260 264 264 259 264 266 268 270 270 277 279 281 284 286 286 287 292 296 300 304 306 305 301 300 299 298 294 290 286 285 281 281 281 283 286 283 277 273 274 274 273 276 276 277 278
239 239 243 249 260 269 265 256 262 268 271 274 271 274 275 277 280 283 282 280 283 288 293 294 299 301 300 297 293 293 293 292 288 284 281 281 281 282 282 281 278 276 276 274 275 275 276 277 278
242 239 243 254 259 262 259 261 262 258 264 271 271 270 271 273 274 277 278 277 278 281 284 286 290 294 294 293 291 288 289 288 287 285 284 283 279 280 279 277 276 277 276 274 276 276 277 278 279
244 241 243 243 251 255 257 256 258 255 256 261 265 266 272 272 274 275 277 274 273 275 278 282 282 286 288 287 286 286 285 284 283 283 285 284 281 279 278 277 278 279 277 276 276 276 275 276 278
244 239 241 244 245 252 257 259 259 260 262 262 261 262 266 269 272 272 273 273 273 273 275 277 279 281 282 281 281 281 282 283 283 285 284 282 281 281 278 277 280 278 276 277 278 279 278 277 279
243 242 245 248 250 248 255 263 265 265 268 267 267 267 268 270 272 272 271 271 270 271 271 273 275 279 279 278 279 278 280 282 283 283 283 282 281 282 283 281 281 279 277 277 277 279 281 282 282
Height
5881 5881 5880 5879 5878 5878 5878 5878 5876 5874 5873 5871 5870 5869 5868 5868 5868 5869 5866 5864 5864 5862 5861 5860 5859 5860 5861 5862 5864 5867 5869 5870 5872 5874 5875 5877 5878 5880 5882 5883 5885 5886 5888 5889 5891 5892 5893 5895 5896
5885 5884 5883 5881 5880 5882 5881 5879 5878 5876 5874 5873 5871 5870 5869 5869 5868 5868 5866 5865 5865 5863 5862 5861 5861 5861 5862 5864 5866 5867 5869 5870 5872 5874 5876 5878 5879 5881 5882 5884 5885 5887 5889 5890 5892 5893 5894 5896 5896
5887 5886 5884 5883 5885 5886 5884 5882 5880 5878 5876 5875 5873 5872 5871 5870 5869 5868 5867 5866 5865 5864 5863 5861 5862 5863 5864 5865 5866 5868 5869 5871 5873 5875 5877 5878 5880 5882 5883 5885 5886 5888 5889 5891 5892 5894 5895 5896 5897
5889 5886 5886 5888 5889 5889 5887 5884 5882 5880 5878 5877 5875 5874 5872 5871 5870 5869 5868 5867 5866 5865 5864 5864 5864 5864 5865 5866 5867 5868 5870 5871 5873 5875 5877 5879 5881 5883 5884 5885 5887 5889 5890 5892 5893 5894 5896 5897 5898
5888 5887 5891 5892 5893 5891 5889 5886 5884 5882 5880 5879 5877 5875 5873 5872 5871 5870 5869 5868 5867 5866 5865 5864 5865 5865 5866 5866 5868 5869 5871 5872 5874 5876 5878 5880 5882 5884 5885 5886 5888 5890 5891 5893 5894 5895 5896 5897 5898
5888 5890 5894 5895 5895 5894 5892 5889 5887 5885 5883 5881 5879 5877 5876 5874 5873 5871 5870 5869 5867 5867 5866 5866 5866 5866 5867 5867 5869 5870 5871 5873 5875 5877 5879 5881 5883 5884 5886 5887 5889 5891 5892 5893 5895 5896 5897 5898 5899
5893 5895 5898 5899 5898 5896 5894 5891 5889 5886 5885 5883 5881 5879 5877 5876 5875 5873 5872 5871 5869 5869 5868 5867 5867 5867 5868 5869 5869 5870 5872 5874 5876 5878 5880 5882 5884 5885 5887 5889 5890 5892 5893 5894 5895 5897 5898 5899 5899
5898 5898 5900 5901 5900 5898 5896 5894 5891 5889 5887 5885 5883 5881 5879 5878 5876 5875 5874 5873 5871 5870 5870 5869 5869 5869 5869 5869 5869 5870 5872 5874 5876 5879 5881 5883 5884 5886 5888 5890 5892 5893 5894 5895 5896 5897 5898 5899 5900
5901 5903 5903 5903 5902 5900 5898 5896 5893 5891 5889 5887 5885 5883 5882 5880 5878 5877 5876 5874 5874 5872 5871 5871 5870 5870 5870 5871 5870 5871 5873 5875 5877 5880 5882 5883 5885 5887 5889 5891 5892 5893 5894 5895 5897 5898 5899 5900 5901
5905 5904 5905 5905 5904 5902 5900 5898 5896 5893 5890 5889 5887 5885 5884 5882 5880 5879 5878 5876 5875 5874 5873 5873 5872 5871 5872 5872 5872 5873 5875 5876 5878 5880 5882 5884 5886 5888 5890 5891 5893 5894 5895 5896 5897 5898 5899 5900 5901
5907 5908 5907 5906 5905 5903 5901 5900 5898 5896 5894 5892 5889 5888 5886 5884 5883 5881 5880 5878 5878 5876 5876 5875 5874 5874 5874 5874 5875 5875 5876 5878 5879 5881 5883 5885 5886 5888 5890 5891 5893 5894 5896 5897 5898 5899 5900 5900 5901
5908 5908 5908 5907 5905 5904 5903 5902 5900 5898 5896 5894 5892 5890 5888 5886 5885 5883 5882 5881 5880 5879 5878 5877 5877 5876 5876 5877 5877 5877 5879 5879 5881 5882 5884 5885 5887 5889 5890 5892 5893 5895 5896 5897 5898 5899 5900 5901 5902
5908 5909 5908 5907 5906 5905 5905 5903 5901 5899 5898 5896 5893 5891 5890 5888 5887 5885 5884 5883 5882 5881 5880 5879 5879 5878 5878 5879 5879 5879 5880 5881 5882 5884 5885 5887 5888 5890 5891 5892 5893 5895 5896 5897 5898 5899 5900 5901 5902
5908 5909 5909 5909 5908 5906 5906 5904 5902 5901 5899 5898 5896 5894 5892 5890 5889 5887 5886 5885 5884 5883 5882 5881 5881 5880 5880 5880 5881 5881 5881 5882 5883 5884 5886 5888 5889 5890 5891 5893 5894 5895 5896 5897 5898 5899 5900 5901 5902
5907 5908 5909 5909 5908 5908 5907 5905 5902 5902 5901 5899 5897 5896 5894 5892 5891 5889 5888 5887 5886 5885 5884 5883 5883 5882 5882 5882 5882 5882 5882 5883 5884 5885 5887 5888 5890 5891 5892 5893 5894 5895 5896 5897 5898 5899 5900 5901 5902
5906 5907 5908 5909 5909 5908 5909 5907 5904 5903 5901 5900 5899 5897 5896 5894 5892 5891 5890 5889 5888 5887 5886 5885 5885 5884 5884 5884 5883 5883 5883 5883 5884 5886 5887 5889 5890 5891 5892 5893 5895 5895 5896 5897 5898 5899 5900 5901 5901
5905 5906 5907 5908 5909 5909 5908 5907 5904 5902 5902 5901 5900 5899 5897 5896 5894 5892 5891 5890 5889 5888 5888 5887 5886 5886 5885 5885 5884 5884 5884 5884 5885 5886 5888 5889 5890 5891 5892 5893 5895 5895 5896 5897 5898 5899 5900 5900 5901
5905 5906 5907 5909 5908 5909 5908 5907 5903 5902 5901 5901 5900 5899 5898 5896 5895 5894 5892 5891 5890 5889 5889 5888 5888 5887 5887 5886 5886 5885 5885 5885 5886 5887 5889 5890 5891 5892 5893 5893 5894 5895 5896 5897 5897 5898 5899 5900 5901
5904 5905 5906 5908 5908 5908 5908 5907 5905 5902 5901 5901 5900 5899 5898 5897 5896 5894 5893 5892 5891 5890 5889 5889 5888 5888 5888 5887 5887 5887 5887 5887 5888 5888 5889 5890 5891 5892 5893 5894 5894 5895 5895 5896 5897 5898 5899 5899 5900
5901 5903 5905 5905 5906 5907 5907 5906 5906 5902 5901 5900 5899 5899 5898 5897 5896 5894 5893 5892 5891 5891 5890 5889 5889 5889 5888 5888 5888 5887 5888 5888 5889 5889 5890 5890 5891 5891 5892 5893 5894 5894 5895 5896 5897 5897 5898 5899 5899
5899 5901 5902 5904 5903 5904 5905 5904 5904 5902 5900 5899 5898 5898 5898 5896 5896 5895 5894 5893 5892 5891 5890 5890 5889 5889 5889 5888 5888 5888 5888 5888 5889 5889 5890 5890 5891 5891 5892 5893 5893 5894 5894 5895 5896 5896 5897 5897 5897
5895 5897 5899 5901 5902 5902 5903 5902 5900 5899 5898 5898 5897 5896 5896 5895 5895 5894 5893 5892 5891 5891 5890 5890 5889 5889 5889 5888 5888 5888 5888 5888 5889 5889 5889 5890 5890 5890 5891 5892 5892 5892 5893 5894 5894 5895 5895 5896 5896
5892 5895 5896 5897 5898 5898 5899 5899 5898 5895 5894 5894 5894 5894 5894 5893 5893 5893 5892 5891 5891 5890 5890 5889 5889 5889 5888 5888 5888 5888 5888 5888 5888 5888 5889 5889 5889 5889 5890 5890 5890 5891 5892 5892 5893 5893 5893 5893 5894
5889 5891 5892 5893 5894 5894 5895 5896 5894 5892 5891 5890 5890 5891 5892 5891 5891 5890 5890 5890 5889 5889 5889 5888 5888 5888 5887 5887 5887 5887 5886 5886 5887 5887 5887 5888 5888 5888 5888 5888 5888 5889 5890 5890 5891 5891 5891 5891 5891
5885 5888 5890 5890 5890 5890 5892 5892 5890 5888 5889 5888 5888 5888 5890 5889 5888 5888 5888 5888 5888 5887 5887 5887 5886 5886 5886 5886 5885 5885 5885 5885 5885 5885 5886 5886 5886 5886 5886 5886 5886 5887 5887 5888 5888 5888 5888 5888 5888
5881 5884 5886 5887 5888 5888 5887 5887 5886 5886 5886 5886 5884 5885 5886 5886 5885 5885 5885 5885 5885 5885 5885 5884 5884 5884 5884 5884 5884 5883 5883 5883 5883 5883 5883 5883 5884 5884 5884 5884 5884 5884 5884 5884 5885 5884 5884 5885 5885
5876 5878 5882 5884 5883 5883 5883 5883 5882 5881 5883 5882 5882 5881 5881 5882 5882 5881 5881 5882 5882 5882 5882 5882 5882 5881 5881 5881 5881 5881 5881 5881 5881 5881 5881 5881 5881 5881 5881 5881 5881 5881 5881 5881 5881 5881 5881 5881 5881
5871 5874 5876 5878 5878 5878 5879 5879 5878 5876 5877 5879 5879 5878 5877 5878 5878 5877 5877 5877 5878 5878 5879 5879 5878 5878 5878 5878 5878 5878 5878 5878 5878 5878 5878 5877 5877 5877 5877 5877 5877 5877 5876 5876 5876 5876 5876 5876 5876
5867 5868 5870 5872 5873 5874 5874 5875 5873 5873 5872 5873 5872 5872 5872 5873 5873 5873 5873 5873 5873 5874 5874 5875 5875 5874 5874 5874 5874 5874 5874 5874 5874 5874 5874 5873 5873 5873 5873 5873 5873 5872 5872 5872 5872 5872 5872 5871 5871
5861 5863 5865 5867 5867 5868 5868 5870 5867 5867 5868 5867 5865 5865 5867 5867 5867 5867 5868 5868 5869 5869 5870 5870 5870 5870 5870 5870 5870 5870 5870 5870 5870 5870 5869 5869 5869 5868 5868 5868 5868 5868 5867 5867 5867 5866 5866 5866 5866